Weather History for KEST - February, 2013

Change the Weather History Date:

Monday, February 11, 2013

  Actual Average Record
Temperature  
Mean Temperature 23 °F 19 °F  
Max Temperature 27 °F 28 °F 57 °F (1977)
Min Temperature 19 °F 10 °F -22 °F (1988)
Degree Days  
Heating Degree Days 42 46  
Month to date heating degree days 467 518  
Since 1 July heating degree days 4861 5189  
Cooling Degree Days 0 0  
Month to date cooling degree days 0 0  
Year to date cooling degree days 0 0  
Moisture  
Dew Point 19 °F    
Average Humidity 80    
Maximum Humidity 92    
Minimum Humidity 68    
Precipitation  
Precipitation 0.00 in 0.01 in 0.20 in (1965)
Month to date precipitation 0.43 0.14  
Sea Level Pressure  
Sea Level Pressure 29.85 in    
Wind  
Wind Speed 23 mph (WNW)    
Max Wind Speed 37 mph    
Max Gust Speed 45 mph    
Visibility 4 miles    
Events Snow    
T = Trace of Precipitation, MM = Missing Value Source: NWS Daily Summary

Daily Weather History Graph

Daily Weather History Graph

Search for Another Location

Airport or City:

Trip Planner

Search our weather history database for the weather conditions in past years. The results will help you decide how hot, cold, wet, or windy it might be!

Date:

Astronomy

Feb. 11, 2013 Rise Set
Actual Time 7:22 AM CST 5:44 PM CST
Civil Twilight 6:52 AM CST 6:14 PM CST
Nautical Twilight 6:19 AM CST 6:47 PM CST
Astronomical Twilight 5:46 AM CST 7:21 PM CST
Moon 7:43 AM CST (2/11) 7:47 PM CST (2/11)
Length of Visible Light 11h 21m
Length of Day
10h 22m
Waxing Crescent, 3% of the Moon is Illuminated
Feb 11
Waxing Crescent
Feb 17
First Quarter
Feb 25
Full
Mar 4
Last Quarter
Mar 11
New

Hourly Weather History & Observations

Time (CST) Temp. Windchill Dew Point Humidity Pressure Visibility Wind Dir Wind Speed Gust Speed Precip Events Conditions
12:19 AM 26.6 °F 10.6 °F 24.8 °F 93% 29.48 in 1.2 mi WNW 28.8 mph 36.8 mph 0.00 in Snow Light Snow
12:42 AM 26.6 °F 11.1 °F 24.8 °F 93% 29.51 in 1.0 mi WNW 26.5 mph 34.5 mph 0.00 in Snow Light Snow
12:47 AM 26.6 °F 11.1 °F 24.8 °F 93% 29.51 in 0.8 mi WNW 26.5 mph - 0.00 in Snow Light Snow
12:52 AM 27.0 °F 11.3 °F 24.1 °F 89% 29.56 in 0.8 mi WNW 27.6 mph 35.7 mph 0.00 in Snow Light Snow
1:02 AM 26.6 °F 10.6 °F 24.8 °F 93% 29.52 in 0.8 mi WNW 28.8 mph 36.8 mph 0.00 in Snow Light Snow
1:11 AM 26.6 °F 10.8 °F 24.8 °F 93% 29.52 in 1.0 mi WNW 27.6 mph 34.5 mph 0.00 in Snow Light Snow
1:47 AM 26.6 °F 11.1 °F 24.8 °F 93% 29.55 in 0.8 mi WNW 26.5 mph 40.3 mph 0.00 in Snow Light Snow
1:52 AM 26.1 °F 9.8 °F 24.1 °F 92% 29.60 in 0.8 mi WNW 28.8 mph 36.8 mph 0.00 in Snow Light Snow
2:21 AM 26.6 °F 10.6 °F 23.0 °F 86% 29.58 in 0.8 mi WNW 28.8 mph 35.7 mph 0.00 in Snow Light Snow
2:52 AM 26.1 °F 10.1 °F 23.0 °F 88% 29.65 in 0.8 mi WNW 27.6 mph 36.8 mph 0.00 in Snow Light Snow
3:50 AM 26.6 °F 10.6 °F 23.0 °F 86% 29.64 in 1.0 mi WNW 28.8 mph 34.5 mph 0.00 in Snow Light Snow
3:52 AM 26.1 °F 10.1 °F 23.0 °F 88% 29.68 in 1.0 mi NW 27.6 mph 34.5 mph 0.00 in Snow Light Snow
4:04 AM 26.6 °F 10.6 °F 21.2 °F 80% 29.65 in 0.8 mi NW 28.8 mph 41.4 mph 0.00 in Snow Light Snow
4:52 AM 25.0 °F 7.8 °F 21.0 °F 85% 29.75 in 0.8 mi NW 31.1 mph 43.7 mph 0.00 in Snow Light Snow
5:10 AM 24.8 °F 8.4 °F 21.2 °F 86% 29.71 in 1.2 mi NW 27.6 mph 39.1 mph 0.00 in   Overcast
5:29 AM 24.8 °F 8.7 °F 21.2 °F 86% 29.72 in 1.0 mi NW 26.5 mph 40.3 mph 0.00 in Snow Light Snow
5:46 AM 24.8 °F 8.4 °F 19.4 °F 80% 29.73 in 2.0 mi WNW 27.6 mph 34.5 mph 0.00 in Snow Light Snow
5:47 AM 24.1 °F 7.7 °F 19.9 °F 84% 29.78 in 2.0 mi WNW 26.5 mph 35.7 mph 0.00 in Snow Light Snow
5:55 AM 24.8 °F 7.6 °F 19.4 °F 80% 29.74 in 1.0 mi WNW 31.1 mph 39.1 mph 0.00 in Snow Light Snow
6:06 AM 24.8 °F 8.4 °F 19.4 °F 80% 29.75 in 1.5 mi WNW 27.6 mph 36.8 mph 0.00 in Snow Light Snow
6:52 AM 23.0 °F 6.6 °F 19.0 °F 85% 29.83 in 1.8 mi WNW 25.3 mph 41.4 mph 0.00 in   Overcast
6:57 AM 24.8 °F 9.3 °F 19.4 °F 80% 29.79 in 3.0 mi WNW 24.2 mph 39.1 mph 0.00 in   Haze
7:11 AM 23.0 °F 6.3 °F 17.6 °F 80% 29.79 in 2.5 mi WNW 26.5 mph 38.0 mph 0.00 in   Haze
7:27 AM 23.0 °F 5.7 °F 17.6 °F 80% 29.81 in 1.2 mi WNW 28.8 mph 41.4 mph 0.00 in Snow Light Snow
7:40 AM 23.0 °F 5.7 °F 17.6 °F 80% 29.82 in 2.5 mi WNW 28.8 mph 36.8 mph 0.00 in   Haze
7:50 AM 23.0 °F 5.7 °F 17.6 °F 80% 29.83 in 1.5 mi WNW 28.8 mph 42.6 mph 0.00 in   Overcast
7:52 AM 23.0 °F 4.9 °F 18.0 °F 81% 29.88 in 1.2 mi WNW 32.2 mph 42.6 mph 0.00 in   Overcast
8:42 AM 23.0 °F 5.4 °F 17.6 °F 80% 29.87 in 2.5 mi WNW 29.9 mph 38.0 mph 0.00 in   Haze
8:52 AM 23.0 °F 4.9 °F 17.1 °F 78% 29.93 in 2.0 mi WNW 32.2 mph 40.3 mph 0.00 in   Overcast
9:11 AM 23.0 °F 5.4 °F 17.6 °F 80% 29.89 in 6.0 mi WNW 29.9 mph 38.0 mph 0.00 in   Haze
9:52 AM 23.0 °F 6.6 °F 17.1 °F 78% 29.96 in 3.0 mi WNW 25.3 mph 34.5 mph 0.00 in Snow Light Snow
10:27 AM 23.0 °F 5.4 °F 17.6 °F 80% 29.92 in 2.0 mi WNW 29.9 mph 34.5 mph 0.00 in Snow Light Snow
10:40 AM 24.8 °F 8.1 °F 17.6 °F 74% 29.93 in 1.5 mi WNW 28.8 mph 40.3 mph 0.00 in Snow Light Snow
10:46 AM 24.8 °F 7.3 °F 17.6 °F 74% 29.93 in 3.0 mi NW 32.2 mph 42.6 mph 0.00 in Snow Light Snow
10:52 AM 24.1 °F 7.1 °F 17.1 °F 75% 29.98 in 8.0 mi NW 28.8 mph 42.6 mph 0.00 in   Overcast
11:52 AM 25.0 °F 8.1 °F 18.0 °F 75% 30.01 in 10.0 mi NW 29.9 mph 35.7 mph N/A   Overcast
12:52 PM 25.0 °F 8.9 °F 18.0 °F 75% 30.02 in 10.0 mi WNW 26.5 mph 33.4 mph N/A   Overcast
1:52 PM 24.1 °F 7.7 °F 16.0 °F 71% 30.04 in 10.0 mi WNW 26.5 mph 32.2 mph N/A   Overcast
2:52 PM 24.1 °F 7.7 °F 16.0 °F 71% 30.05 in 10.0 mi NW 26.5 mph 31.1 mph N/A   Overcast
3:36 PM 23.0 °F 6.6 °F 15.8 °F 74% 30.01 in 10.0 mi WNW 25.3 mph 31.1 mph N/A   Scattered Clouds
3:49 PM 23.0 °F 6.9 °F 15.8 °F 74% 30.02 in 10.0 mi WNW 24.2 mph 32.2 mph N/A   Mostly Cloudy
3:52 PM 23.0 °F 6.9 °F 15.1 °F 72% 30.07 in 10.0 mi WNW 24.2 mph 29.9 mph N/A   Mostly Cloudy
4:52 PM 23.0 °F 7.6 °F 15.1 °F 72% 30.08 in 10.0 mi NW 21.9 mph - N/A   Overcast
5:52 PM 21.9 °F 7.3 °F 15.1 °F 75% 30.09 in 10.0 mi WNW 18.4 mph - N/A   Overcast
6:52 PM 21.9 °F 8.2 °F 15.1 °F 75% 30.11 in 10.0 mi WNW 16.1 mph - N/A   Overcast
7:52 PM 21.0 °F 9.3 °F 15.1 °F 78% 30.11 in 10.0 mi West 11.5 mph - N/A   Overcast
8:52 PM 19.9 °F 7.9 °F 14.0 °F 78% 30.12 in 10.0 mi WNW 11.5 mph - N/A   Overcast
9:28 PM 19.4 °F 5.5 °F 12.2 °F 74% 30.06 in 10.0 mi WNW 15.0 mph - N/A   Scattered Clouds
9:52 PM 19.0 °F 6.1 °F 12.9 °F 77% 30.13 in 10.0 mi NW 12.7 mph - N/A   Partly Cloudy
10:14 PM 19.4 °F 8.6 °F 12.2 °F 74% 30.06 in 10.0 mi NW 9.2 mph - N/A   Mostly Cloudy
10:52 PM 19.9 °F 9.3 °F 12.9 °F 74% 30.13 in 10.0 mi WNW 9.2 mph - N/A   Overcast
11:52 PM 19.9 °F 9.3 °F 14.0 °F 78% 30.13 in 10.0 mi WNW 9.2 mph - N/A   Overcast